Regional Weather Roundup
Issued by NWS

Home | Current Version | Previous Version | Text Only | Print | Product List | Glossary Off
Versions: 1 2 3 4 5 6 7 8 9 10 11 12 13 14 15 16 17 18 19 20 21 22 23 24 25 26 27

000
ASUS45 KTFX 270110
RWRMT
MONTANA REGIONAL WEATHER ROUNDUP
NATIONAL WEATHER SERVICE GREAT FALLS MT
700 PM MDT FRI AUG 26 2016

NOTE: "FAIR" INDICATES FEW OR NO CLOUDS BELOW 12000 FEET WITH NO
SIGNIFICANT WEATHER AND/OR OBSTRUCTIONS TO VISIBILITY.

MTZ001>007-043-270200-
WEST OF THE DIVIDE

CITY           SKY/WX    TMP DP  RH WIND       PRES   REMARKS
KALISPELL      PTSUNNY   75  41  29 SE10      29.90F
MISSOULA         N/A     78  36  21 N5        29.92F
BUTTE          CLOUDY    69  30  23 N10       30.04S
MULLAN PASS    PTSUNNY   63  31  30 CALM      30.08S
DEER LODGE       N/A     70  30  23 NW9       30.02S
EUREKA           N/A     81  37  21 W8        29.87F
HAMILTON         N/A     73  37  27 CALM      29.94F
LIBBY            N/A     81  36  19 W5        29.88F
PLAINS           N/A     79  42  26 CALM      29.90F
RONAN            N/A     73  48  41 CALM      29.98
$$

MTZ008-052>055-270200-
SOUTHWEST MONTANA

CITY           SKY/WX    TMP DP  RH WIND       PRES   REMARKS
BOZEMAN        CLOUDY    71  37  28 N6        29.98F
DILLON         CLOUDY    73  29  19 NE7       29.98F
W YELLOWSTONE  CLOUDY    66  25  20 W7        30.08S
ENNIS          SUNNY     72  28  20 N9        30.05S
THREE FORKS      N/A     75  75 100 CALM      29.97S
TWIN BRIDGES     N/A     74  29  19 CALM      29.98S
$$

MTZ009-010-012-014-046-048-049-054-270200-
EAST SLOPES AND CENTRAL MONTANA

CITY           SKY/WX    TMP DP  RH WIND       PRES   REMARKS
CUT BANK       MOSUNNY   69  36  29 CALM      29.93F
GREAT FALLS    SUNNY     70  38  31 E7        29.95F
HELENA         MOSUNNY   74  35  24 SE3       29.95F
CHOTEAU          N/A     70  39  32 SE3       29.96F
CONRAD           N/A     71  43  36 S1        29.98F
$$

MTZ011-013-016-021-045-047-050-051-270200-
NORTH CENTRAL MONTANA

CITY           SKY/WX    TMP DP  RH WIND       PRES   REMARKS
HAVRE          SUNNY     71  40  32 VRB7      29.92F
LEWISTOWN      PTSUNNY   67  41  38 NW5       30.00F
N BAR RANCH      N/A     63  37  39 CALM      30.04S
CHINOOK          N/A     70  45  40 E3        29.93F
$$

MTZ017>020-022>027-061-062-270200-
NORTHEAST MONTANA

CITY           SKY/WX    TMP DP  RH WIND       PRES   REMARKS
GLASGOW        CLEAR     67  43  41 W10       29.94S
JORDAN           N/A     69  43  38 NW6       29.96F
WOLF POINT     CLOUDY    68  49  50 SW6       29.94F
POPLAR           N/A     70  46  43 SW9       29.94F
SCOBEY           N/A     64  44  48 NW7       29.94F
$$

MTZ028>42-056>058-270200-
SOUTHCENTRAL AND SOUTHEAST MONTANA

CITY           SKY/WX    TMP DP  RH WIND       PRES   REMARKS
BAKER          PTCLDY    60  48  64 SE12      29.99R
BILLINGS       PTCLDY    71  38  29 NE9       29.96F
LIVINGSTON     CLOUDY    73  30  20 NW7       29.97F
MILES CITY     MOCLDY    68  42  38 N15       29.96R
FORSYTH          N/A     70  41  35 N10       29.96S
LAUREL           N/A     72  36  26 CALM      29.96F
ROUNDUP          N/A     65  39  38 NE7       29.92S
$$

REGIONAL REPORTS...DAKOTAS

CITY           SKY/WX    TMP DP  RH WIND       PRES   REMARKS
WILLISTON      MOCLDY    69  44  40 NW10      29.92S
MINOT          CLEAR     67  49  52 S15G23    29.92F
DICKINSON      CLOUDY    64  43  46 SW6       29.97R
CROSBY           N/A     63  48  59 W8        29.92F
WATFORD CITY   LGT RAIN  63  54  72 N6        29.93S
BISMARCK       PTCLDY    65  52  62 S14       30.00S
GRAND FORKS    MOCLDY    67  52  58 SW12      30.00F
FARGO          CLOUDY    65  53  65 SW6       30.04F
BUFFALO SD       N/A     63  49  60 S9        29.94F
RAPID CITY     LGT RAIN  60  56  86 NE8       30.03R
$$

REGIONAL REPORTS...WYOMING/IDAHO/WASHINGTON

CITY           SKY/WX    TMP DP  RH WIND       PRES   REMARKS
GILLETTE       CLOUDY    67  44  43 E7        30.01R
SHERIDAN       CLOUDY    58  44  60 NW22G35   30.03R
BUFFALO WY     CLOUDY    67  39  35 N9        30.05R
CODY           CLOUDY    61  45  55 N5        30.05F
YELLOWSTONE LA   N/A     60  25  26 W8        30.16S
IDAHO FALLS    SUNNY     75  32  20 S14       29.99S
SALMON         SUNNY     77  37  24 CALM      29.90S
BOISE          SUNNY     84  30  14 NW9       29.91F
SPOKANE        PTSUNNY   84  33  16 NW7       29.87F
$$

REGIONAL REPORTS...ALBERTA

CITY           SKY/WX    TMP DP  RH WIND       PRES   REMARKS
EDMONTON       MOSUNNY   68  46  45 S7        29.77F
CALGARY        MOSUNNY   66  45  45 SE14G20   29.85F
MEDICINE HAT   MOSUNNY   70  45  40 S3        29.89F
WATERTON GATE    N/A     66  41  39 SW7         N/A
CARDSTON         N/A     72  39  30 W7          N/A
MILK RIVER       N/A     70  36  28 S3          N/A
ONEFOUR          N/A     70  37  30 W2          N/A
$$

REGIONAL REPORTS...SASKATCHEWAN

CITY           SKY/WX    TMP DP  RH WIND       PRES   REMARKS
SWIFT CURRENT  CLEAR     63  43  48 NW7       29.91F
REGINA         MOCLDY    61  54  77 NW5       29.90R
SASKATOON      PTCLDY    64  48  55 N8        29.88S
CYPRESS HILLS    N/A     57  45  62 E3          N/A
VAL MARIE        N/A     64  43  45 NW5         N/A
ROCKGLEN         N/A     59  48  67 N5          N/A
$$




USA.gov is the U.S. government's official web portal to all federal, state and local government web resources and services.